Cairns, Australia

7:25 PM AEST on April 27, 2017 (GMT +1000)
Cairns International

Weather History for YBCS - March, 2012

Change the Weather History Date:

Tuesday, March 13, 2012

  Actual Average Record
Temperature  
Mean Temperature 76 °F -  
Max Temperature 78 °F 86 °F 95 °F (2007)
Min Temperature 74 °F 72 °F 39 °F (2004)
Cooling Degree Days 11    
Growing Degree Days 26 (Base 50)    
Moisture  
Dew Point 74 °F    
Average Humidity 92    
Maximum Humidity 100    
Minimum Humidity 83    
Precipitation  
Precipitation 1.14 in 0.46 in - ()
Sea Level Pressure  
Sea Level Pressure 29.84 in    
Wind  
Wind Speed 10 mph ()    
Max Wind Speed 15 mph    
Max Gust Speed -    
Visibility 4.2 miles    
Events Rain    
Averages and records for this station are not official NWS values.
T = Trace of Precipitation, MM = Missing Value Source: Averaged Metar Reports

Daily Weather History Graph

Daily Weather History Graph

Search for Another Location

Airport or City:

Trip Planner

Search our weather history database for the weather conditions in past years. The results will help you decide how hot, cold, wet, or windy it might be!

Date:

Astronomy

Mar. 13, 2012 Rise Set
Actual Time 6:19 AM AEST 6:33 PM AEST
Civil Twilight 5:57 AM AEST 6:54 PM AEST
Nautical Twilight 5:32 AM AEST 7:19 PM AEST
Astronomical Twilight 5:07 AM AEST 7:45 PM AEST
Moon 10:28 PM AEST (3/13) 10:52 AM AEST (3/13)
Length of Visible Light 12h 56m
Length of Day
12h 13m
Waning Gibbous, 72% of the Moon is Illuminated
Mar 13
Waning Gibbous
Mar 15
Last Quarter
Mar 23
New
Mar 31
First Quarter
Apr 7
Full

Hourly Weather History & Observations

Time (AEST) Temp. Dew Point Humidity Pressure Visibility Wind Dir Wind Speed Gust Speed Precip Events Conditions
12:00 AM 75 °F 73 °F 92% 29.87 in - South 12.7 mph - -   Overcast
12:00 AM 75.2 °F 73.4 °F 94% 29.86 in 6.2 mi South 12.7 mph - N/A Rain Light Rain Showers
12:17 AM 75.2 °F 73.4 °F 94% 29.86 in 3.7 mi South 13.8 mph - N/A Rain Light Rain Showers
12:30 AM 75.2 °F 73.4 °F 94% 29.86 in 3.1 mi South 12.7 mph - N/A Rain Light Rain Showers
1:30 AM 75.2 °F 71.6 °F 89% 29.83 in 6.2 mi South 12.7 mph - N/A   Mostly Cloudy
2:00 AM 75.2 °F 71.6 °F 89% 29.83 in 6.2 mi South 12.7 mph - N/A   Mostly Cloudy
2:30 AM 75.2 °F 73.4 °F 94% 29.80 in 6.2 mi South 13.8 mph - N/A Rain Light Rain Showers
3:00 AM 76 °F 72 °F 84% 29.82 in 5 mi South 10.4 mph - -  
3:00 AM 75.2 °F 71.6 °F 89% 29.80 in 6.2 mi South 10.4 mph - N/A   Mostly Cloudy
3:30 AM 77.0 °F 71.6 °F 83% 29.80 in 6.2 mi South 11.5 mph - N/A   Mostly Cloudy
4:00 AM 76 °F 72 °F 85% 29.83 in - South 12.7 mph - -  
4:00 AM 77.0 °F 71.6 °F 83% 29.80 in 6.2 mi South 12.7 mph - N/A Rain Light Rain Showers
4:16 AM 75.2 °F 73.4 °F 94% 29.83 in 3.7 mi SE 10.4 mph - N/A Rain Light Rain Showers
4:30 AM 75.2 °F 73.4 °F 94% 29.83 in 3.7 mi South 10.4 mph - N/A Rain Light Rain Showers
5:00 AM 75.2 °F 73.4 °F 94% 29.80 in 5.0 mi South 10.4 mph - N/A Rain Light Rain Showers
5:30 AM 77.0 °F 73.4 °F 89% 29.83 in 6.2 mi South 9.2 mph - N/A Rain Light Rain Showers
5:51 AM 77.0 °F 73.4 °F 89% 29.83 in 3.1 mi South 11.5 mph - N/A Rain Rain Showers
6:00 AM 76 °F 74 °F 91% 29.84 in 4 mi South 11.5 mph - - Rain Light Rain Showers
6:00 AM 75.2 °F 73.4 °F 94% 29.83 in 3.7 mi South 11.5 mph - N/A Rain Light Rain Showers
6:30 AM 77.0 °F 73.4 °F 89% 29.83 in 6.2 mi South 11.5 mph - N/A   Mostly Cloudy
7:00 AM 76 °F 74 °F 91% 29.86 in - SSE 15.0 mph - -  
7:00 AM 77.0 °F 73.4 °F 89% 29.86 in 6.2 mi SSE 15.0 mph - N/A Rain Light Rain Showers
7:30 AM 77.0 °F 73.4 °F 89% 29.86 in 6.2 mi South 13.8 mph - N/A Rain Light Rain Showers
7:54 AM 75.2 °F 73.4 °F 94% 29.86 in 1.9 mi South 12.7 mph - N/A Rain Rain Showers
8:00 AM 75.2 °F 73.4 °F 94% 29.86 in 1.9 mi SSE 12.7 mph - N/A Rain Rain Showers
8:30 AM 75.2 °F 73.4 °F 94% 29.89 in 2.5 mi SE 8.1 mph - N/A Rain Rain Showers
9:00 AM 75 °F 74 °F 95% 29.91 in 2 mi SSE 6.9 mph - - Rain Rain
9:00 AM 75.2 °F 73.4 °F 94% 29.89 in 2.5 mi SSE 6.9 mph - N/A Rain Rain
9:30 AM 75.2 °F 73.4 °F 94% 29.89 in 2.5 mi SSE 8.1 mph - N/A Rain Light Rain
10:00 AM 75 °F 74 °F 94% 29.91 in - South 9.2 mph - -  
10:00 AM 75.2 °F 73.4 °F 94% 29.89 in 3.1 mi South 9.2 mph - N/A Rain Light Rain
10:30 AM 75.2 °F 73.4 °F 94% 29.89 in 3.1 mi SSW 8.1 mph - N/A Rain Light Rain
10:53 AM 75.2 °F 73.4 °F 94% 29.89 in 2.5 mi South 10.4 mph - N/A Rain Light Rain
11:00 AM 75.2 °F 73.4 °F 94% 29.89 in 3.1 mi South 13.8 mph - N/A Rain Light Rain
11:14 AM 75.2 °F 73.4 °F 94% 29.89 in 5.0 mi South 12.7 mph - N/A   Mostly Cloudy
11:30 AM 77.0 °F 73.4 °F 89% 29.86 in 3.1 mi South 9.2 mph - N/A Rain Light Rain
12:00 PM 78 °F 74 °F 84% 29.87 in 7 mi South 10.4 mph - -   Partly Cloudy
12:00 PM 77.0 °F 73.4 °F 89% 29.86 in 6.2 mi South 10.4 mph - N/A   Mostly Cloudy
12:30 PM 78.8 °F 75.2 °F 89% 29.83 in 3.7 mi South 10.4 mph - N/A Rain Light Rain Showers
1:00 PM 78 °F 75 °F 87% 29.84 in - South 8.1 mph - -  
1:00 PM 77.0 °F 75.2 °F 94% 29.83 in 6.2 mi South 8.1 mph - N/A Rain Light Rain Showers
1:30 PM 78.8 °F 75.2 °F 89% 29.80 in 5.0 mi South 6.9 mph - N/A Rain Light Rain Showers
1:40 PM 78.8 °F 75.2 °F 89% 29.80 in 3.7 mi SSE 8.1 mph - N/A Rain Light Rain Showers
1:54 PM 78.8 °F 75.2 °F 89% 29.80 in 2.5 mi ESE 6.9 mph - N/A Rain Light Rain Showers
2:00 PM 78.8 °F 75.2 °F 89% 29.80 in 1.9 mi East 6.9 mph - N/A Rain Rain Showers
2:12 PM 77.0 °F 75.2 °F 94% 29.80 in 1.9 mi East 8.1 mph - N/A Rain Rain Showers
2:20 PM 77.0 °F 75.2 °F 94% 29.80 in 1.9 mi SE 13.8 mph - N/A Rain Rain Showers
2:30 PM 75.2 °F 75.2 °F 100% 29.80 in 1.2 mi SE 12.7 mph - N/A Rain Rain Showers
2:37 PM 75.2 °F 75.2 °F 100% 29.80 in 2.5 mi SE 10.4 mph - N/A Rain Rain Showers
3:00 PM 76 °F 74 °F 93% 29.81 in 3 mi SSE 6.9 mph - - Rain Light Rain Showers
3:00 PM 75.2 °F 75.2 °F 100% 29.80 in 3.1 mi SSE 6.9 mph - N/A Rain Light Rain Showers
3:26 PM 75.2 °F 75.2 °F 100% 29.80 in 1.9 mi SSE 8.1 mph - N/A Rain Light Rain Showers
3:30 PM 75.2 °F 75.2 °F 100% 29.80 in 1.9 mi SSE 8.1 mph - N/A Rain Light Rain Showers
4:00 PM 75 °F 74 °F 96% 29.82 in - South 9.2 mph - -  
4:00 PM 75.2 °F 73.4 °F 94% 29.80 in 1.9 mi South 9.2 mph - N/A Rain Light Rain
4:30 PM 75.2 °F 75.2 °F 100% 29.80 in 3.7 mi South 11.5 mph - N/A Rain Light Rain
4:43 PM 75.2 °F 73.4 °F 94% 29.80 in 5.6 mi South 10.4 mph - N/A   Mostly Cloudy
5:00 PM 75.2 °F 73.4 °F 94% 29.80 in 5.0 mi South 10.4 mph - N/A Rain Light Rain Showers
5:14 PM 75.2 °F 73.4 °F 94% 29.80 in 3.1 mi South 10.4 mph - N/A Rain Light Rain
5:20 PM 75.2 °F 73.4 °F 94% 29.83 in 1.2 mi SSE 8.1 mph - N/A Rain Light Rain Showers
5:30 PM 75.2 °F 73.4 °F 94% 29.80 in 1.9 mi SSE 9.2 mph - N/A Rain Light Rain
6:00 PM 75 °F 73 °F 92% 29.83 in 4 mi SSE 10.4 mph - - Rain Light Rain
6:00 PM 75.2 °F 73.4 °F 94% 29.83 in 3.7 mi SSE 10.4 mph - N/A Rain Light Rain
6:30 PM 75.2 °F 73.4 °F 94% 29.83 in 1.9 mi South 8.1 mph - N/A Rain Light Rain Showers
7:00 PM 74 °F 73 °F 97% 29.85 in - SSE 10.4 mph - -  
7:00 PM 75.2 °F 73.4 °F 94% 29.83 in 4.3 mi SSE 10.4 mph - N/A   Mostly Cloudy
7:15 PM 75.2 °F 73.4 °F 94% 29.83 in 6.2 mi South 9.2 mph - N/A   Mostly Cloudy
7:30 PM 75.2 °F 71.6 °F 89% 29.86 in 6.2 mi South 6.9 mph - N/A   Mostly Cloudy
8:00 PM 75.2 °F 71.6 °F 89% 29.86 in 6.2 mi South 9.2 mph - N/A   Mostly Cloudy
8:30 PM 75.2 °F 73.4 °F 94% 29.86 in 6.2 mi South 8.1 mph - N/A   Mostly Cloudy
9:00 PM 75 °F 73 °F 92% 29.88 in 6 mi SSE 9.2 mph - - Rain Light Rain
9:00 PM 75.2 °F 73.4 °F 94% 29.86 in 6.2 mi SSE 9.2 mph - N/A Rain Light Rain
9:30 PM 75.2 °F 73.4 °F 94% 29.86 in 6.2 mi South 10.4 mph - N/A   Mostly Cloudy
10:00 PM 75 °F 72 °F 88% 29.89 in - South 10.4 mph - -  
10:00 PM 75.2 °F 71.6 °F 89% 29.86 in 6.2 mi South 10.4 mph - N/A Rain Light Rain
10:30 PM 75.2 °F 73.4 °F 94% 29.86 in 6.2 mi South 10.4 mph - N/A   Mostly Cloudy
11:00 PM 75.2 °F 73.4 °F 94% 29.86 in 6.2 mi South 9.2 mph - N/A Rain Light Rain
11:30 PM 75.2 °F 71.6 °F 89% 29.86 in 5.6 mi South 11.5 mph - N/A Rain Light Rain